Miscellaneous Local Product
Issued by NWS Hastings, NE

Home | Current Version | Previous Version | Graphics & Text | Print | Product List | Glossary On
Versions: 1 2 3 4 5 6 7 8 9 10 11 12 13 14 15 16 17 18 19 20 21 22 23 24 25 26 27 28 29 30 31 32 33 34 35 36 37 38 39 40 41 42 43 44 45 46 47 48 49 50
000
AXUS43 KGID 270102
MISGRI

GID CWA HOURLY WEATHER ROUNDUP
NATIONAL WEATHER SERVICE HASTINGS NE
800 PM CDT SAT JUL 26 2014

NOTE: "FAIR" INDICATES FEW OR NO CLOUDS BELOW 12,000 FEET WITH NO
SIGNIFICANT WEATHER AND/OR OBSTRUCTIONS TO VISIBILITY.

...SOUTH CENTRAL NEBRASKA...

CITY           SKY/WX    TMP DP  RH WIND       PRES   REMARKS
GRAND ISLAND   PTCLDY    85  70  60 N7        29.92R
HASTINGS       PTCLDY    85  75  72 N8        29.92R HX  93
KEARNEY        MOCLDY    82  72  69 NW12      29.96R
ORD            CLEAR     81  65  58 N10       29.96R
YORK           CLEAR     84  75  74 N7        29.90R HX  92
AURORA         CLEAR     83  74  74 N8        29.91R HX  91
LEXINGTON      MOCLDY    83  70  64 N6        29.99R
HOLDREGE       CLOUDY    81  72  73 N7        29.97R
HEBRON         CLEAR     89  73  59 N3        29.85R HX  97

...NEBRASKA PANHANDLE...

CITY           SKY/WX    TMP DP  RH WIND       PRES   REMARKS
CHADRON        SUNNY     83  45  26 E13       30.08R
ALLIANCE       SUNNY     83  44  25 E10       30.11R
SCOTTSBLUFF    MOSUNNY   85  55  35 E10       30.10R
SIDNEY         MOSUNNY   84  62  47 SE16      30.13R

...WESTERN AND NORTH CENTRAL NEBRASKA...

CITY           SKY/WX    TMP DP  RH WIND       PRES   REMARKS
VALENTINE      SUNNY     85  45  24 N7        30.03R
AINSWORTH      SUNNY     80  59  49 N7        30.03R
ONEILL         CLEAR     82  61  48 N6        29.97R
BROKEN BOW     CLEAR     80  63  55 N9        30.01R
IMPERIAL       LGT RAIN  81  65  58 NE8       30.07R
NORTH PLATTE   SUNNY     81  62  52 NE9       30.03R
MCCOOK         PTSUNNY   85  67  54 NE9       30.00R

...EASTERN NEBRASKA...

CITY           SKY/WX    TMP DP  RH WIND       PRES   REMARKS
NORFOLK        PTCLDY    83  72  69 N9        29.92R
SO SIOUX CITY  PTCLDY    83  71  67 NE5       29.88R
COLUMBUS       CLEAR     81  72  74 N5        29.90R
ALBION         CLEAR     81  69  67 N8        29.94R
OMAHA EPPLEY   MOCLDY    84  73  69 NE8       29.85R HX  90
OFFUTT AFB     PTCLDY    84  78  84 NE3       29.84R HX  95
MILLARD        MOCLDY    86  75  69 CALM      29.85R HX  94
LINCOLN        CLEAR     86  75  69 NE8       29.86R HX  95
NEBRASKA CITY  CLEAR     82  76  82 CALM      29.84S HX  90
BEATRICE       CLEAR     87  79  77 N5        29.84R HX 101
FALLS CITY     NOT AVBL

...NORTHERN KANSAS...

CITY           SKY/WX    TMP DP  RH WIND       PRES   REMARKS
GOODLAND       PTSUNNY   88  56  33 E13       30.04S
HILL CITY      CLEAR     92  62  36 NE12      29.93R HX  92
NORTON         CLEAR     88  63  42 N9        29.96R
PHILLIPSBURG   CLEAR     93  64  38 N12       29.91R HX  95
SMITH CENTER   CLEAR     90  66  45 NW9       29.89R HX  92
HAYS           PTCLDY    93  64  38 NE10      29.89R HX  95
RUSSELL        PTCLDY    95  66  38 N8        29.86R HX  98
CONCORDIA      CLEAR     92  77  61 NE7       29.84R HX 105
SALINA         CLEAR    101  65  30 SW10      29.80R HX 104
TOPEKA         CLEAR     96  71  44 S6        29.77F HX 103



USA.gov is the U.S. government's official web portal to all federal, state and local government web resources and services.